Regional Weather Roundup
Issued by NWS Jackson, KY

Home | Current Version | Previous Version | Text Only | Print | Product List | Glossary On
Versions: 1 2 3 4 5 6 7 8 9 10 11 12 13 14 15 16 17 18 19 20 21 22 23 24 25 26 27 28
000
ASUS43 KJKL 250010
RWRJKL

EAST KENTUCKY HOURLY WEATHER ROUNDUP
NATIONAL WEATHER SERVICE JACKSON KY
700 PM EST TUE JAN 24 2017

NOTE: "FAIR" INDICATES FEW OR NO CLOUDS BELOW 12,000 FEET WITH
NO SIGNIFICANT WEATHER AND/OR OBSTRUCTIONS TO VISIBILITY.

* THESE REPORTS ARE NOT UNDER NWS QUALITY CONTROL AND MAY NOT
  REPORT WEATHER SUCH AS PRECIPITATION AND FOG.

KYZ079-080-083-085-087-088-110-112-115-119-120-250100
...EASTERN KENTUCKY...

CITY           SKY/WX    TMP DP  RH WIND       PRES   REMARKS
JACKSON        CLOUDY    41  37  86 CALM      29.89R
6HR MIN TEMP:  39; 6HR MAX TEMP:  41; 6HR PCP: TRACE;

LONDON         CLOUDY    41  34  76 SW6       29.91R
6HR MIN TEMP:  40; 6HR MAX TEMP:  42;

SOMERSET*      CLOUDY    41  34  75 CALM      29.93S
MONTICELLO*    CLEAR     34  32  92 VRB3      29.93S
6HR MIN TEMP:  34; 6HR MAX TEMP:  44;

WILLIAMSBURG*  CLOUDY    39  37  93 CALM      29.92R
MIDDLESBORO*   PTCLDY    40  37  89 CALM      29.92S
6HR MIN TEMP:  40; 6HR MAX TEMP:  46;

HARLAN APT*    CLOUDY    39  36  87 CALM      29.91R
PIKE CO APT*   CLOUDY    40  39  98 W3        29.90R
BIG SANDY APT* CLOUDY    41  38  88 W6        29.91R
6HR MIN TEMP:  41; 6HR MAX TEMP:  42;

MOREHEAD APT*  CLOUDY    43  36  75 VRB3      29.91S
ASHLAND*       CLOUDY    45  39  81 W6        29.88R
$$

KYZ035-036-041-042-044-050-067-078-099-250100
...CENTRAL KENTUCKY...

CITY           SKY/WX    TMP DP  RH WIND       PRES   REMARKS
MT STERLING*   CLOUDY    41  36  81 W5        29.91S
FLEMING/MASON* CLOUDY    41  36  80 CALM      29.91R
DANVILLE*      MOCLDY    41  36  81 S5        29.90S
LEXINGTON      CLOUDY    41  34  76 SE3       29.88F
6HR MIN TEMP:  42; 6HR MAX TEMP:  45;

FRANKFORT      CLOUDY    43  34  70 S3        29.87S
6HR MIN TEMP:  41; 6HR MAX TEMP:  48;

LOUISVILLE     PTCLDY    45  32  60 CALM      29.86F
6HR MIN TEMP:  45; 6HR MAX TEMP:  50;

LEBANON*         N/A     41  36  81 S3        29.89F
GLASGOW*       CLEAR     41  36  81 E5        29.88S
BOWLING GREEN  CLEAR     43  35  73 E5        29.86F
6HR MIN TEMP:  42; 6HR MAX TEMP:  50;

$$

KYZ091>093-OHZ055-061-077-WVZ005-015-034-035-042-250100
...SOUTHERN OHIO/WEST VIRGINIA...

CITY           SKY/WX    TMP DP  RH WIND       PRES   REMARKS
COVINGTON      CLOUDY    41  34  76 NW5       29.87S
COLUMBUS       CLOUDY    41  35  79 W13       29.84R
DAYTON         CLOUDY    39  33  79 W7        29.87R WCI  34
WILMINGTON     CLOUDY    40  34  79 W8        29.85S WCI  34
HUNTINGTON     CLOUDY    43  38  82 SW7       29.89R
CHARLESTON     CLOUDY    43  39  86 W10       29.86R
BECKLEY        CLOUDY    38  36  92 W10       29.82R WCI  31
BLUEFIELD      CLOUDY    37  35  92 W16G24    29.82R WCI  28
LOGAN CO APT*  CLOUDY    41  39  93 CALM      29.87R
$$

VAZ002-007-008-TNZ017-027-036-066-071-250100
...SOUTHWEST VIRGINIA/EAST TENNESSEE...

CITY           SKY/WX    TMP DP  RH WIND       PRES   REMARKS
WISE*          CLOUDY    39  39 100 N3        29.88R
JONESVILLE*    MOCLDY    41  37  87 NW3       29.92R
ABINGDON*      CLOUDY    44  40  83 W7        29.88R
BRISTOL        CLOUDY    45  37  73 W7        29.89R
MORRISTOWN*    CLEAR     45  39  81 CALM      29.88R
SEVIERVILLE*   CLEAR     45  36  70 CALM      29.89R
KNOXVILLE      CLEAR     48  38  68 SW5       29.89R
LAFOLLETTE*    CLEAR     39  37  93 CALM      29.93R
OAK RIDGE      CLEAR     46  35  65 CALM      29.91R
CROSSVILLE     CLEAR     41  35  79 CALM      29.89R
NASHVILLE      CLEAR     49  35  58 SE7       29.86F
$$

...KEY TO REMARKS...
VSB - VISIBILITY IN MILES
WCI - WIND CHILL INDEX
HX  - HEAT INDEX

$$




USA.gov is the U.S. government's official web portal to all federal, state and local government web resources and services.